| time (UTC) | temp F | wind direction | speed MPH | gust MPH | rain 1hr in | rain 24hr in | rain mn in | humidity % | barometer mb |
| 20260904213017 | 53 | 287 | 0.0 | 1.0 | 0.00 | 0.00 | 0.00 | 81 | 1015.7 |
| 20260904211519 | 52 | 320 | 0.0 | 2.0 | 0.00 | 0.00 | 0.00 | 81 | 1015.5 |
| 20260904210013 | 51 | 15 | 0.0 | 2.0 | 0.00 | 0.00 | 0.00 | 82 | 1015.4 |
| 20260904204508 | 50 | 355 | 0.0 | 0.0 | 0.00 | 0.00 | 0.00 | 85 | 1016.0 |
| 20260904203007 | 49 | 225 | 0.0 | 0.0 | 0.00 | 0.00 | 0.00 | 85 | 1015.9 |
| 20260904201505 | 50 | 351 | 0.0 | 0.0 | 0.00 | 0.00 | 0.00 | 86 | 1015.8 |
| 20260904200006 | 49 | 315 | 0.0 | 0.0 | 0.00 | 0.00 | 0.00 | 87 | 1015.8 |
| 20260904194502 | 49 | 192 | 0.0 | 0.0 | 0.00 | 0.00 | 0.00 | 87 | 1016.2 |
| 20260904193109 | 49 | 275 | 0.0 | 0.0 | 0.00 | 0.00 | 0.00 | 88 | 1016.5 |
| 20260904191700 | 49 | 242 | 0.0 | 0.0 | 0.00 | 0.00 | 0.00 | 88 | 1016.7 |
| 20260904190059 | 48 | 297 | 0.0 | 0.0 | 0.00 | 0.00 | 0.00 | 89 | 1016.5 |
| 20260904184559 | 49 | 267 | 0.0 | 0.0 | 0.00 | 0.00 | 0.00 | 88 | 1016.4 |
| 20260904183117 | 49 | 338 | 0.0 | 0.0 | 0.00 | 0.00 | 0.00 | 87 | 1016.4 |
| 20260904181556 | 49 | 300 | 0.0 | 0.0 | 0.00 | 0.00 | 0.00 | 87 | 1016.6 |
| 20260904180117 | 49 | 262 | 0.0 | 0.0 | 0.00 | 0.00 | 0.00 | 87 | 1016.5 |
| 20260904174606 | 49 | 240 | 0.0 | 0.0 | 0.00 | 0.00 | 0.00 | 87 | 1016.7 |
| 20260904173053 | 49 | 254 | 0.0 | 0.0 | 0.00 | 0.00 | 0.00 | 87 | 1016.9 |
| 20260904171554 | 49 | 313 | 0.0 | 0.0 | 0.00 | 0.00 | 0.00 | 87 | 1016.6 |
| 20260904170051 | 49 | 297 | 0.0 | 0.0 | 0.00 | 0.00 | 0.00 | 88 | 1016.9 |
| 20260904164544 | 49 | 290 | 0.0 | 0.0 | 0.00 | 0.00 | 0.00 | 89 | 1017.4 |
| 20260904163039 | 49 | 318 | 0.0 | 0.0 | 0.00 | 0.00 | 0.00 | 89 | 1017.7 |
| 20260904161538 | 48 | 296 | 0.0 | 0.0 | 0.00 | 0.00 | 0.00 | 90 | 1017.8 |
| 20260904160036 | 49 | 232 | 0.0 | 0.0 | 0.00 | 0.00 | 0.00 | 89 | 1018.2 |
| 20260904154532 | 49 | 244 | 0.0 | 0.0 | 0.00 | 0.00 | 0.00 | 89 | 1018.4 |
| 20260904153028 | 49 | 254 | 0.0 | 0.0 | 0.00 | 0.00 | 0.00 | 89 | 1018.2 |
| 20260904151523 | 49 | 296 | 0.0 | 0.0 | 0.00 | 0.00 | 0.00 | 89 | 1018.4 |
| 20260904150030 | 49 | 281 | 0.0 | 0.0 | 0.00 | 0.00 | 0.00 | 90 | 1018.6 |
| 20260904144518 | 48 | 288 | 0.0 | 0.0 | 0.00 | 0.00 | 0.00 | 90 | 1018.6 |
| 20260904143018 | 48 | 288 | 0.0 | 0.0 | 0.00 | 0.00 | 0.00 | 90 | 1018.5 |
| 20260904141526 | 48 | 275 | 0.0 | 0.0 | 0.00 | 0.00 | 0.00 | 89 | 1018.7 |
| 20260904140030 | 49 | 255 | 0.0 | 0.0 | 0.00 | 0.00 | 0.00 | 89 | 1018.7 |
| 20260904134514 | 49 | 281 | 0.0 | 0.0 | 0.00 | 0.00 | 0.00 | 89 | 1018.6 |
| 20260904133013 | 49 | 350 | 0.0 | 0.0 | 0.00 | 0.00 | 0.00 | 88 | 1018.6 |
| 20260904131509 | 49 | 326 | 0.0 | 0.0 | 0.00 | 0.00 | 0.00 | 88 | 1018.8 |
| 20260904130009 | 50 | 335 | 0.0 | 0.0 | 0.00 | 0.00 | 0.00 | 88 | 1019.1 |
| 20260904124507 | 49 | 251 | 0.0 | 0.0 | 0.00 | 0.00 | 0.00 | 89 | 1019.3 |
| 20260904123007 | 49 | 248 | 0.0 | 0.0 | 0.00 | 0.00 | 0.00 | 89 | 1019.8 |
| 20260904121507 | 49 | 328 | 0.0 | 0.0 | 0.00 | 0.00 | 0.00 | 89 | 1019.9 |
| 20260904120111 | 49 | 306 | 0.0 | 0.0 | 0.00 | 0.00 | 0.00 | 89 | 1020.0 |
| 20260904114511 | 50 | 276 | 0.0 | 0.0 | 0.00 | 0.00 | 0.00 | 88 | 1020.0 |
| 20260904113009 | 50 | 276 | 0.0 | 0.0 | 0.00 | 0.00 | 0.00 | 88 | 1020.2 |
| 20260904111503 | 51 | 338 | 0.0 | 0.0 | 0.00 | 0.00 | 0.00 | 87 | 1020.5 |
| 20260904110003 | 51 | 247 | 0.0 | 0.0 | 0.00 | 0.00 | 0.00 | 87 | 1020.5 |
| 20260904104503 | 51 | 266 | 0.0 | 0.0 | 0.00 | 0.00 | 0.00 | 86 | 1020.5 |
| 20260904103002 | 52 | 296 | 0.0 | 0.0 | 0.00 | 0.00 | 0.00 | 85 | 1020.6 |
| 20260904101503 | 52 | 329 | 0.0 | 0.0 | 0.00 | 0.00 | 0.00 | 85 | 1020.6 |
| 20260904100001 | 51 | 288 | 0.0 | 0.0 | 0.00 | 0.00 | 0.00 | 85 | 1020.4 |
| 20260904094601 | 52 | 329 | 0.0 | 0.0 | 0.00 | 0.00 | 0.00 | 84 | 1020.3 |
| 20260904093100 | 52 | 330 | 0.0 | 0.0 | 0.00 | 0.00 | 0.00 | 83 | 1020.3 |
| 20260904091559 | 52 | 334 | 0.0 | 4.0 | 0.00 | 0.00 | 0.00 | 83 | 1020.4 |
| 20260904090059 | 52 | 341 | 0.0 | 0.0 | 0.00 | 0.00 | 0.00 | 82 | 1020.5 |
| 20260904084559 | 53 | 339 | 0.0 | 0.0 | 0.00 | 0.00 | 0.00 | 81 | 1020.5 |
| 20260904083107 | 53 | 295 | 0.0 | 0.0 | 0.00 | 0.00 | 0.00 | 80 | 1020.5 |
| 20260904081557 | 53 | 310 | 0.0 | 0.0 | 0.00 | 0.00 | 0.00 | 79 | 1020.3 |
| 20260904080104 | 54 | 314 | 0.0 | 0.0 | 0.00 | 0.00 | 0.00 | 77 | 1020.4 |
| 20260904074558 | 55 | 306 | 0.0 | 0.0 | 0.00 | 0.00 | 0.00 | 75 | 1020.2 |
| 20260904073105 | 55 | 255 | 0.0 | 0.0 | 0.00 | 0.00 | 0.00 | 73 | 1020.1 |
| 20260904071556 | 56 | 225 | 0.0 | 0.0 | 0.00 | 0.00 | 0.00 | 73 | 1020.0 |
| 20260904070056 | 56 | 273 | 0.0 | 0.0 | 0.00 | 0.00 | 0.00 | 72 | 1019.6 |
| 20260904064607 | 58 | 242 | 0.0 | 3.0 | 0.00 | 0.00 | 0.00 | 68 | 1019.6 |
| 20260904063108 | 59 | 219 | 0.0 | 1.0 | 0.00 | 0.00 | 0.00 | 67 | 1019.5 |
| 20260904061554 | 59 | 225 | 0.0 | 3.0 | 0.00 | 0.00 | 0.00 | 64 | 1019.4 |
| 20260904060108 | 59 | 222 | 0.0 | 1.0 | 0.00 | 0.00 | 0.00 | 64 | 1019.4 |
| 20260904053052 | 59 | 234 | 0.0 | 4.0 | 0.00 | 0.00 | 0.00 | 62 | 1019.6 |
| 20260904051552 | 59 | 238 | 0.0 | 0.0 | 0.00 | 0.00 | 0.00 | 61 | 1019.6 |
| 20260904050056 | 59 | 237 | 0.0 | 7.0 | 0.00 | 0.00 | 0.00 | 59 | 1019.5 |
| 20260904044550 | 58 | 277 | 0.0 | 2.0 | 0.00 | 0.00 | 0.00 | 60 | 1019.5 |
| 20260904043050 | 59 | 287 | 1.0 | 11.0 | 0.00 | 0.00 | 0.00 | 58 | 1019.6 |
| 20260904041552 | 59 | 267 | 1.0 | 13.0 | 0.00 | 0.00 | 0.00 | 56 | 1019.4 |
| 20260904040051 | 60 | 294 | 0.0 | 12.0 | 0.00 | 0.00 | 0.00 | 57 | 1019.5 |
| 20260904034548 | 60 | 239 | 1.0 | 10.0 | 0.00 | 0.00 | 0.00 | 56 | 1019.5 |
| 20260904033045 | 59 | 228 | 0.0 | 8.0 | 0.00 | 0.00 | 0.00 | 56 | 1019.5 |
| 20260904031541 | 60 | 183 | 0.0 | 11.0 | 0.00 | 0.00 | 0.00 | 55 | 1019.8 |
| 20260904030039 | 59 | 237 | 0.0 | 11.0 | 0.00 | 0.00 | 0.00 | 56 | 1020.0 |
| 20260904024536 | 59 | 227 | 0.0 | 11.0 | 0.00 | 0.00 | 0.00 | 57 | 1020.4 |
| 20260904023039 | 57 | 264 | 0.0 | 10.0 | 0.00 | 0.00 | 0.00 | 64 | 1021.0 |
| 20260904021546 | 57 | 290 | 1.0 | 10.0 | 0.00 | 0.00 | 0.00 | 72 | 1021.4 |
| 20260904020032 | 57 | 256 | 0.0 | 13.0 | 0.00 | 0.00 | 0.00 | 71 | 1021.7 |
| 20260904014531 | 57 | 282 | 0.0 | 3.0 | 0.00 | 0.00 | 0.00 | 73 | 1021.9 |
| 20260904013033 | 57 | 279 | 0.0 | 8.0 | 0.00 | 0.00 | 0.00 | 68 | 1021.9 |
| 20260904011528 | 58 | 234 | 1.0 | 10.0 | 0.00 | 0.00 | 0.00 | 65 | 1021.9 |
| 20260904010025 | 57 | 7 | 2.0 | 7.0 | 0.00 | 0.00 | 0.00 | 71 | 1022.1 |
| 20260904004525 | 57 | 283 | 0.0 | 10.0 | 0.00 | 0.01 | 0.00 | 69 | 1022.2 |
| 20260904003024 | 55 | 247 | 1.0 | 8.0 | 0.00 | 0.01 | 0.00 | 77 | 1022.4 |
| 20260904001516 | 55 | 192 | 0.0 | 6.0 | 0.00 | 0.01 | 0.00 | 79 | 1022.5 |
| 20260904000014 | 53 | 292 | 4.0 | 9.0 | 0.00 | 0.01 | 0.00 | 83 | 1022.8 |
| 20260903234510 | 52 | 322 | 0.0 | 7.0 | 0.00 | 0.01 | 0.00 | 86 | 1023.0 |
| 20260903233014 | 52 | 277 | 0.0 | 4.0 | 0.00 | 0.01 | 0.00 | 87 | 1023.1 |
| 20260903231507 | 52 | 282 | 2.0 | 6.0 | 0.00 | 0.01 | 0.00 | 87 | 1023.0 |
| 20260903230005 | 51 | 277 | 2.0 | 8.0 | 0.00 | 0.01 | 0.00 | 87 | 1023.0 |
| 20260903224503 | 51 | 254 | 3.0 | 7.0 | 0.00 | 0.01 | 0.00 | 88 | 1023.0 |
| 20260903223103 | 50 | 322 | 4.0 | 9.0 | 0.00 | 0.01 | 0.00 | 89 | 1022.8 |
| 20260903221555 | 50 | 309 | 0.0 | 5.0 | 0.00 | 0.01 | 0.00 | 89 | 1022.9 |
| 20260903220057 | 49 | 273 | 0.0 | 3.0 | 0.00 | 0.01 | 0.00 | 90 | 1022.6 |
| 20260903214551 | 48 | 308 | 0.0 | 5.0 | 0.00 | 0.01 | 0.00 | 89 | 1022.6 |